Location: Muncie
(40.1930°N, 85.3860°W)
Time: 23:00:35
(UTC-04:00)

Hubble Space Telescope - Pass Details

Date: 21 February 2026
Orbit: 476 x 478 km, 28.5° (Epoch: 16 March)

Event Time Altitude Azimuth Distance (km) Brightness Sun altitude
Exits shadow 05:44:40 12° 185° (S) 1,505 3.0 -20.2°
Maximum altitude 05:45:22 13° 173° (S) 1,477 3.0 -20.0°
Drops below altitude 10° 05:47:04 10° 146° (SE) 1,637 3.6 -19.7°
Sets 05:50:18 0° 117° (ESE) 2,516 5.3 -19.1°
